{"data":{"norad_id":61670,"intl_designator":"2024-193K","name":"STARLINK-32449","alt_names":[],"object_type":"PAYLOAD","status":"ACTIVE","operator":null,"country":"US","launch_date":"2024-10-26","launch_site_code":"AFETR","launch_vehicle":null,"mission":null,"orbit_class":"UNKNOWN","rcs_meters":null,"size_class":null,"mass_kg":null,"dimensions":null,"purposes":["comms"],"wikipedia_slug":null,"has_3d_model":false,"image_url":null,"decayed_at":null,"tle_current":{"epoch":"2026-05-25T03:46:54.239808Z","epoch_age_seconds":68416,"freshness":"FRESH","line1":"1 61670U 24193K   26145.15757222 -.00000008  00000+0  11871-4 0  9998","line2":"2 61670  53.1610  95.8636 0001237  95.7463 264.3679 15.30193631 88232","mean_motion":15.30193631,"eccentricity":0.0001237,"inclination_deg":53.161,"raan_deg":95.8636,"arg_perigee_deg":95.7463,"mean_anomaly_deg":264.3679,"bstar":1.1871e-5,"rev_number":8823,"period_min":94.10573739344,"perigee_km":474.3863241679,"apogee_km":476.08184817462,"semimajor_km":6853.3710861713,"source":"CELESTRAK","updated_at":"2026-05-25T13:38:19.434551Z"}}}